Location: Milton
(43.5183°N, 79.8775°W)
Time: 23:44:28
(UTC+00:00)

ESTCUBE 1 - Pass Details

Date: 04 April 2023
Orbit: 640 x 654 km, 97.9° (Epoch: 28 May)

Event Time Altitude Azimuth Distance (km) Brightness Sun altitude
Exits shadow 04:17:41 12° 313° (NW) 1,910 ? -38.7°
Drops below altitude 10° 04:18:14 10° 318° (NW) 2,074 ? -38.8°
Sets 04:20:54 0° 334° (NNW) 2,989 ? -39.0°
